#timestamp,LO_Frequency,Hit,StdDev 
1570363215.6,286046998.9,P
1570363235.4,286046997.2,N
1570363255.3,286046996.6,N
1570363275.1,286046999.2,N
1570363276.0,286046999.2,N
1570363295.8,286046999.2,N
1570363315.7,286047000.0,N
1570363335.5,286047000.3,N
1570363355.3,286047001.2,N
1570363375.2,286046999.3,N
1570363395.0,286046998.1,N
1570363395.9,286046998.1,N
1570363415.8,286046998.7,N
1570363435.6,286046998.5,N
1570363455.4,286046996.5,N
1570363475.3,286046999.5,N
1570363495.1,286046997.0,N
1570363515.9,286046997.7,N
1570363535.7,286046997.1,N
1570363555.5,286046996.9,N
1570363575.4,286046999.0,N
1570363595.2,286047000.7,N
1570363615.0,286046998.2,N
1570363615.9,286046998.2,N
1570363635.8,286046999.5,N
1570363655.6,286046999.2,N
1570363675.5,286047000.7,N
1570363695.3,286047001.7,N
1570363715.1,286047001.9,N
1570363735.9,286047003.4,N
1570363755.7,286046999.7,N
1570363775.5,286046997.4,N
1570363795.4,286046995.2,N
1570363815.2,286046995.5,N
1570363835.1,286046994.9,N
1570363836.0,286046994.9,N
1570363855.8,286046995.0,N
1570363875.6,286046995.3,N
1570363895.5,286046997.5,N
1570363915.3,286046991.7,Y
1570363935.2,286046996.2,P
1570363955.9,286046995.6,P
1570363975.7,286046997.7,N
1570363995.6,286046997.6,N
1570364015.4,286046997.6,N
1570364035.2,286046999.0,N
1570364055.1,286046996.9,N
1570364056.0,286046996.9,Y
1570364075.8,286047002.4,P
1570364095.7,286047005.7,N
1570364115.5,286047005.3,N
1570364135.3,286047001.8,N
1570364155.2,286047001.3,N
1570364175.0,286047002.2,N
1570364175.9,286047002.2,N
1570364195.8,286046996.7,N
1570364215.6,286046994.6,N
1570364235.4,286046992.0,N
1570364255.3,286046991.7,N
1570364275.1,286046993.5,N
1570364295.8,286046995.0,N
1570364315.7,286046997.6,N
1570364335.5,286046999.5,N
1570364355.4,286046998.1,N
1570364375.2,286047002.0,N
1570364395.0,286047002.3,N
1570364395.9,286047002.3,N
1570364415.8,286047004.1,N
1570364435.6,286047001.7,N
1570364455.4,286047005.5,N
1570364475.3,286047006.0,N
1570364495.1,286047004.4,N
1570364515.9,286046998.8,N
1570364535.7,286046995.1,N
1570364555.5,286046992.2,N
1570364575.4,286046992.2,N
1570364595.2,286046994.3,N
1570364615.0,286046993.9,N
1570364615.9,286046993.9,N
1570364635.8,286046995.6,N
1570364655.6,286046997.4,N
1570364675.4,286046998.9,N
1570364695.3,286047000.6,N
1570364715.1,286047002.8,N
1570364735.9,286047002.0,N
1570364755.7,286047005.5,N
1570364775.5,286047003.0,N
1570364795.4,286047006.0,N
1570364815.2,286047001.5,N
1570364835.0,286047004.0,N
1570364835.9,286047004.0,N
1570364855.8,286047001.7,N
1570364875.6,286046999.2,N
1570364895.5,286046995.5,N
1570364915.3,286046998.0,N
1570364935.1,286046999.5,N
1570364955.9,286046998.8,N
1570364975.7,286047002.1,N
1570364995.5,286047000.8,N
1570365015.4,286046998.7,N
1570365035.2,286046999.2,N
1570365055.1,286046996.3,N
1570365056.0,286046996.3,N
1570365075.8,286046993.1,N
1570365095.6,286046992.5,N
1570365115.5,286046990.3,N
1570365135.3,286046993.4,N
1570365155.1,286046992.0,N
1570365175.9,286046990.4,N
1570365195.7,286046991.5,N
1570365215.6,286046989.8,N
1570365235.4,286046987.0,N
1570365255.2,286046987.5,N
1570365275.1,286046987.2,N
1570365276.0,286046987.2,N
1570365295.8,286046987.9,N
1570365315.6,286046987.4,N
1570365335.5,286046987.9,N
1570365355.3,286046987.7,N
1570365375.2,286046988.6,N
1570365395.9,286046985.8,N
1570365415.7,286046984.2,Y
1570365435.6,286046989.1,P
1570365455.4,286046989.7,P
1570365475.2,286046989.0,P
1570365495.1,286046991.1,Y
1570365496.0,286046991.1,P
1570365515.8,286046999.0,N
1570365535.7,286047000.9,N
1570365555.5,286047001.0,N
1570365575.3,286047004.3,N
1570365595.2,286047003.2,N
1570365615.0,286047002.9,N
1570365615.9,286047002.9,N
1570365635.8,286046999.8,N
1570365655.6,286047000.6,N
1570365675.4,286046999.1,N
1570365695.3,286046997.6,N
1570365715.1,286046996.5,N
1570365735.8,286047001.1,N
1570365755.7,286047002.7,N
1570365775.5,286047003.9,N
1570365795.4,286047005.6,N
1570365815.2,286047005.0,N
1570365835.0,286047004.1,N
1570365835.9,286047004.1,N
1570365855.8,286047003.3,N
1570365875.6,286047005.6,N
1570365895.4,286047004.9,N
1570365915.3,286047006.6,N
1570365935.1,286047008.5,N
1570365955.9,286047008.5,N
1570365975.7,286047009.7,N
1570365995.5,286047010.0,N
1570366015.4,286047009.4,N
1570366035.2,286047011.3,N
1570366055.1,286047013.6,Y
1570366056.0,286047013.6,P
1570366075.8,286047012.4,N
1570366095.6,286047011.5,N
1570366115.5,286047011.2,N
1570366135.3,286047011.4,Y
1570366155.2,286047002.9,P
1570366175.9,286046998.6,N
1570366195.7,286046999.0,N
1570366215.6,286046996.8,N
1570366235.4,286046999.6,N
1570366255.2,286046999.2,N
1570366275.1,286046999.3,N
1570366276.0,286046999.3,N
1570366295.8,286047000.5,N
1570366315.7,286047001.8,N
1570366335.5,286047001.8,N
1570366355.3,286047001.6,N
1570366375.2,286047003.9,N
1570366395.0,286047005.7,N
1570366395.9,286047005.7,N
1570366415.8,286047007.2,N
1570366435.6,286047008.6,N
1570366455.4,286047009.0,N
1570366475.3,286047008.5,N
1570366495.1,286047006.1,N
1570366515.8,286047008.2,N
1570366535.7,286047008.2,N
1570366555.5,286047012.3,Y
1570366575.4,286047005.7,P
1570366595.2,286047005.3,P
1570366615.0,286047006.4,P
1570366615.9,286047006.4,Y
1570366635.8,286047003.7,P
1570366655.6,286047005.9,P
1570366675.5,286047003.1,P
1570366695.3,286047003.0,N
1570366715.1,286047005.9,Y
1570366735.9,286047000.6,P
1570366755.7,286047001.0,N
1570366775.6,286047000.9,N
1570366795.4,286047004.3,N
